This is the latest recevied weather packets stored in our database for station/object KG0HG. If no packets are shown the sender has not sent any weather packets the latest 10 day(s).
| Time | Temp. | Humidity | Pressure | Rain* | Wind** | Luminosity | Snow |
|---|---|---|---|---|---|---|---|
| 1778027079 | 10.56° C | 87% | 1012 hPa | 0 mm | - | 8 W/m² | - |
| 1778026775 | 10.56° C | 86% | 1012 hPa | 0 mm | - | 11 W/m² | - |
| 1778026472 | 10.56° C | 86% | 1011.6 hPa | 0 mm | - | 12 W/m² | - |
| 1778026169 | 10.56° C | 86% | 1011.9 hPa | 0 mm | - | 16 W/m² | - |
| 1778025867 | 10.56° C | 86% | 1011.7 hPa | 0 mm | - | 25 W/m² | - |
| 1778025564 | 10.56° C | 86% | 1011.5 hPa | 0 mm | - | 34 W/m² | - |
| 1778025262 | 10.56° C | 86% | 1011.4 hPa | 0 mm | - | 28 W/m² | - |
| 1778024958 | 10.56° C | 87% | 1012 hPa | 0 mm | - | 34 W/m² | - |
| 1778024656 | 10.56° C | 87% | 1011.9 hPa | 0 mm | - | 38 W/m² | - |
| 1778024352 | 10.56° C | 87% | 1011.6 hPa | 0 mm | - | 30 W/m² | - |
| 1778024050 | 10° C | 86% | 1012 hPa | 0 mm | - | 28 W/m² | - |
| 1778023748 | 10° C | 86% | 1012.3 hPa | 0 mm | - | 16 W/m² | - |
| 1778023446 | 10.56° C | 86% | 1011.9 hPa | 0 mm | - | 23 W/m² | - |
| 1778023141 | 10.56° C | 86% | 1012.2 hPa | 0 mm | - | 25 W/m² | - |
| 1778022839 | 10.56° C | 86% | 1012.1 hPa | 0 mm | - | 25 W/m² | - |
| 1778022537 | 10.56° C | 85% | 1012.2 hPa | 0 mm | - | 28 W/m² | - |
| 1778022235 | 10° C | 85% | 1012 hPa | 0 mm | - | 23 W/m² | - |
| 1778021931 | 10° C | 84% | 1011.9 hPa | 0 mm | - | 21 W/m² | - |
| 1778021628 | 10.56° C | 84% | 1012 hPa | 0 mm | - | 29 W/m² | - |
| 1778021323 | 10.56° C | 84% | 1011.7 hPa | 0 mm | - | 50 W/m² | - |
| 1778021021 | 10.56° C | 85% | 1011.9 hPa | 0 mm | - | 61 W/m² | - |
| 1778020718 | 10.56° C | 85% | 1012.1 hPa | 0 mm | - | 48 W/m² | - |
| 1778020415 | 10.56° C | 84% | 1011.7 hPa | 0 mm | - | 49 W/m² | - |
| 1778020111 | 11.11° C | 86% | 1012 hPa | 0 mm | - | 43 W/m² | - |
| 1778019807 | 10.56° C | 86% | 1012 hPa | 0 mm | - | 76 W/m² | - |
* Rain latest hour (hover to see other rain measurements)
** Current wind speed in m/s (hover to see current wind gust speed)